FW2278 Weather Reports


time (UTC)temp
C
wind
direction
speed
KPH
gust
KPH
rain 1hr
cm
rain 24hr
cm
rain mn
cm
humidity
%
barometer
mb
20260504140803 16 263 0.0 0.0 0.03 0.61 0.00 95 1017.8
20260504140304 16 263 0.0 0.0 0.03 0.61 0.00 95 1017.8
20260504130303 17 318 0.0 0.0 0.00 0.61 0.61 95 1018.0
20260504120304 16 319 0.0 0.0 0.00 0.61 0.61 95 1018.0
20260504110304 16 329 0.0 0.0 0.00 0.61 0.61 94 1017.4
20260504100304 17 329 0.0 0.0 0.00 0.61 0.61 93 1016.4
20260504081304 18 329 0.0 0.0 0.00 0.61 0.61 91 1016.1
20260504080804 18 329 0.0 0.0 0.00 0.61 0.61 90 1016.1
20260504080303 18 329 0.0 0.0 0.00 0.61 0.61 90 1016.1
20260504070303 20 329 0.0 0.0 0.00 0.61 0.61 86 1015.9
20260504045804 20 273 0.0 0.0 0.00 0.61 0.61 89 1016.0
20260504045304 20 273 0.0 0.0 0.00 0.61 0.61 89 1016.0
20260504044803 20 273 0.0 0.0 0.00 0.61 0.61 90 1016.0
20260504044303 20 273 0.0 0.0 0.00 0.61 0.61 91 1015.9
20260504043804 20 273 0.0 0.0 0.00 0.61 0.61 92 1015.9
20260504043304 20 273 0.0 0.0 0.00 0.61 0.61 93 1015.9
20260504041304 19 40 0.0 0.0 0.00 0.61 0.61 94 1016.0
20260504040803 19 40 0.0 0.0 0.00 0.61 0.61 95 1016.2
20260504040304 19 40 0.0 0.0 0.00 0.61 0.61 95 1016.2
20260504035804 18 40 0.0 0.0 0.00 0.61 0.61 95 1016.2
20260504035305 18 40 0.0 0.0 0.00 0.61 0.61 95 1016.2
20260504034803 18 40 0.0 0.0 0.00 0.61 0.61 95 1016.3
20260504034304 18 40 0.0 0.0 0.00 0.61 0.61 95 1016.5
20260504033803 18 40 0.0 0.0 0.00 0.61 0.61 95 1016.4
20260504033304 18 40 0.0 0.0 0.00 0.61 0.61 95 1016.3
20260504032804 17 40 0.0 0.0 0.00 0.61 0.61 95 1016.6
20260504032304 17 40 0.0 0.0 0.00 0.61 0.61 95 1016.7
20260504031304 17 40 0.0 0.0 0.00 0.61 0.61 95 1016.9
20260504030304 17 40 0.0 0.0 0.03 0.61 0.61 95 1017.1
20260504024804 18 38 0.0 0.0 0.05 0.61 0.61 95 1017.4
20260504024304 18 51 3.2 11.3 0.10 0.61 0.61 95 1017.6
20260504023304 18 51 1.6 9.7 0.15 0.61 0.61 95 1017.7
20260504022804 17 52 0.0 0.0 0.18 0.61 0.61 95 1017.9
20260504022304 17 52 0.0 0.0 0.23 0.61 0.61 95 1017.8
20260504021804 18 52 0.0 0.0 0.23 0.61 0.61 95 1018.0
20260504021304 18 52 0.0 0.0 0.25 0.61 0.61 95 1018.1
20260504020804 18 52 0.0 0.0 0.25 0.61 0.61 95 1018.2
20260504015305 18 52 0.0 0.0 0.25 0.56 0.56 95 1018.7
20260504014303 18 52 0.0 0.0 0.30 0.51 0.51 95 1018.9
20260504013804 18 52 0.0 0.0 0.25 0.43 0.43 95 1019.0
20260504013304 18 52 0.0 0.0 0.25 0.43 0.43 95 1019.0
20260504012804 17 52 0.0 0.0 0.25 0.43 0.43 95 1019.1
20260504011804 17 52 0.0 0.0 0.23 0.36 0.36 95 1019.2
20260504005304 17 52 0.0 0.0 0.20 0.30 0.30 95 1019.1
20260504004303 17 52 0.0 0.0 0.13 0.20 0.20 95 1019.3
20260504002804 17 52 0.0 0.0 0.15 0.15 0.15 95 1019.0
20260504002304 17 52 0.0 0.0 0.10 0.13 0.13 94 1019.2
20260504001803 17 52 0.0 0.0 0.13 0.13 0.13 94 1019.0
20260504000804 17 52 0.0 0.0 0.10 0.10 0.10 94 1019.1
20260504000304 17 52 0.0 0.0 0.10 0.10 0.10 94 1019.0
20260503235804 17 52 0.0 0.0 0.10 0.10 0.10 94 1019.1
20260503235304 17 52 0.0 0.0 0.10 0.10 0.10 95 1019.1
20260503234304 17 52 0.0 0.0 0.08 0.08 0.08 94 1019.2
20260503233304 17 52 0.0 0.0 0.05 0.05 0.05 95 1019.2
20260503232804 17 52 0.0 0.0 0.03 0.03 0.03 95 1019.3
20260503232306 17 52 0.0 0.0 0.03 0.03 0.03 95 1019.4
20260503231804 17 52 0.0 0.0 0.00 0.00 0.00 95 1019.6
20260503231304 17 52 0.0 0.0 0.00 0.00 0.00 95 1019.8
20260503230804 17 52 0.0 0.0 0.00 0.00 0.00 95 1019.8
20260503225304 17 52 0.0 0.0 0.00 0.00 0.00 95 1019.5
20260503224804 17 52 0.0 0.0 0.00 0.00 0.00 95 1019.4
20260503224304 17 52 0.0 0.0 0.00 0.00 0.00 95 1019.2
20260503223804 17 52 0.0 0.0 0.00 0.00 0.00 95 1019.0
20260503223304 17 52 0.0 0.0 0.00 0.00 0.00 96 1019.0
20260503222304 17 52 0.0 0.0 0.00 0.00 0.00 96 1018.7
20260503221804 17 52 0.0 0.0 0.00 0.00 0.00 96 1018.6
20260503221304 17 52 0.0 0.0 0.00 0.00 0.00 96 1018.5
20260503220304 16 52 0.0 0.0 0.00 0.00 0.00 96 1018.6
20260503215803 16 52 0.0 0.0 0.00 0.00 0.00 96 1018.5
20260503215304 16 52 0.0 0.0 0.00 0.00 0.00 96 1018.4
20260503213804 16 52 0.0 0.0 0.00 0.00 0.00 96 1018.5
20260503213304 16 52 0.0 0.0 0.00 0.00 0.00 96 1018.5
20260503212305 16 52 0.0 0.0 0.00 0.00 0.00 96 1018.4
20260503211804 15 52 0.0 0.0 0.00 0.00 0.00 95 1018.3
20260503211303 15 52 0.0 0.0 0.00 0.00 0.00 95 1018.2
20260503210804 15 52 0.0 0.0 0.00 0.00 0.00 95 1018.1
20260503210303 15 52 0.0 0.0 0.00 0.00 0.00 95 1018.1
20260503205803 15 52 0.0 0.0 0.00 0.00 0.00 96 1018.1
20260503205304 15 52 0.0 0.0 0.00 0.00 0.00 95 1018.1
20260503204803 15 52 0.0 0.0 0.00 0.00 0.00 95 1018.0
20260503204304 15 52 0.0 0.0 0.00 0.00 0.00 95 1018.0
20260503203804 15 52 0.0 0.0 0.00 0.00 0.00 95 1017.9
20260503203303 15 52 0.0 0.0 0.00 0.00 0.00 95 1017.9
20260503202804 15 52 0.0 0.0 0.00 0.00 0.00 95 1017.8
20260503202304 15 52 0.0 0.0 0.00 0.00 0.00 95 1017.8
20260503201804 15 52 0.0 0.0 0.00 0.00 0.00 95 1017.8
20260503201304 15 52 0.0 0.0 0.00 0.00 0.00 95 1017.7
20260503200803 15 52 0.0 0.0 0.00 0.00 0.00 95 1017.7
20260503200304 15 52 0.0 0.0 0.00 0.00 0.00 95 1017.7
20260503195304 15 52 0.0 0.0 0.00 0.00 0.00 95 1017.6
20260503194804 15 52 0.0 0.0 0.00 0.00 0.00 95 1017.5
20260503194304 15 52 0.0 0.0 0.00 0.00 0.00 95 1017.4
20260503193303 15 52 0.0 0.0 0.00 0.00 0.00 95 1017.4
20260503192804 15 52 0.0 0.0 0.00 0.00 0.00 95 1017.5
20260503192305 15 52 0.0 0.0 0.00 0.00 0.00 95 1017.4
20260503191304 15 52 0.0 0.0 0.00 0.00 0.00 95 1017.4
20260503190304 15 52 0.0 0.0 0.00 0.00 0.00 95 1017.5
20260503185804 15 52 0.0 0.0 0.00 0.00 0.00 95 1017.4
20260503184804 14 52 0.0 0.0 0.00 0.00 0.00 95 1017.5
20260503183304 14 52 0.0 0.0 0.00 0.00 0.00 95 1017.5
20260503182804 14 52 0.0 0.0 0.00 0.00 0.00 95 1017.5
20260503181804 14 52 0.0 0.0 0.00 0.00 0.00 95 1017.5
20260503181304 14 52 0.0 0.0 0.00 0.00 0.00 95 1017.5
20260503180804 14 52 0.0 0.0 0.00 0.00 0.00 95 1017.5
20260503180304 14 52 0.0 0.0 0.00 0.00 0.00 95 1017.4
20260503175804 14 52 0.0 0.0 0.00 0.00 0.00 95 1017.3
20260503174304 14 52 0.0 0.0 0.00 0.00 0.00 95 1017.4
20260503173804 14 52 0.0 0.0 0.00 0.00 0.00 95 1017.5
20260503173304 14 52 0.0 0.0 0.00 0.00 0.00 95 1017.5
20260503172804 14 52 0.0 0.0 0.00 0.00 0.00 95 1017.5
20260503172305 14 52 0.0 0.0 0.00 0.00 0.00 95 1017.5
20260503171804 14 52 0.0 0.0 0.00 0.00 0.00 94 1017.6
20260503171303 14 52 0.0 0.0 0.00 0.00 0.00 94 1017.6
20260503170804 14 52 0.0 0.0 0.00 0.00 0.00 94 1017.7
20260503170304 14 52 0.0 0.0 0.00 0.00 0.00 94 1017.7
20260503150304 15 52 0.0 0.0 0.00 0.00 0.00 93 1018.6